Regional Weather Roundup
Issued by NWS

Home | Current Version | Previous Version | Text Only | Print | Product List | Glossary Off
Versions: 1 2 3 4 5 6 7 8 9 10 11 12 13 14 15 16 17 18 19 20 21 22 23 24 25 26 27 28 29 30 31 32 33 34 35 36 37 38 39 40 41 42 43 44 45 46 47 48 49 50

294
ASUS43 KFSD 251102
RWRSD

WEATHER ROUNDUP FOR SOUTH DAKOTA
NATIONAL WEATHER SERVICE SIOUX FALLS SD
500 AM CST SAT FEB 25 2017

NOTE: "FAIR" INDICATES FEW OR NO CLOUDS BELOW 12,000 FEET WITH NO
SIGNIFICANT WEATHER AND/OR OBSTRUCTIONS TO VISIBILITY.


SDZ001>005-009-010-012>017-251200-
NORTHWEST AND NORTH CENTRAL SOUTH DAKOTA

CITY           SKY/WX    TMP DP  RH WIND       PRES   REMARKS
BUFFALO          N/A     23  19  85 W8        29.84F WCI  14
FAITH            N/A     18  16  92 S9        29.93F WCI   7
MOBRIDGE       MOCLDY    23  15  71 S6        29.96F WCI  16
$$

SDZ012>016-024>037-041>051-057-063-072>074-251200-
SOUTHWEST AND SOUTH CENTRAL SOUTH DAKOTA

CITY           SKY/WX    TMP DP  RH WIND       PRES   REMARKS
RAPID CTY ARPT CLEAR     13   7  77 W5        29.93F WCI   5
PIERRE         CLOUDY    23  14  68 S8        30.02F WCI  14
CUSTER         CLOUDY    14   7  73 NW3       29.82F
ELLSWORTH AFB  CLEAR     16  12  83 W5        29.91F WCI   9
PHILIP         CLOUDY    18  14  84 SW6       29.98F WCI  10
PINE RIDGE     CLEAR      6   3  87 W3        29.96F
SPEARFISH      CLOUDY    23  16  74 W8        29.90F WCI  14
WINNER         CLOUDY    19  12  74 S6        30.04F WCI  11
$$

SDZ004>011-016>023-039-040-251200-
NORTHEAST SOUTH DAKOTA

CITY           SKY/WX    TMP DP  RH WIND       PRES   REMARKS
ABERDEEN       PTCLDY    12   8  84 SW5       30.03F WCI   4
WATERTOWN      CLEAR     13  10  88 W6        29.99F WCI   4
BROOKINGS      CLEAR     13  11  92 NW5       30.01F WCI   5
SISSETON         N/A     16  11  80 W5        30.01F WCI   9
$$

SDZ017-020-022-023-036>040-048>070-251200-
SOUTHEAST SOUTH DAKOTA

CITY           SKY/WX    TMP DP  RH WIND       PRES   REMARKS
SIOUX FALLS    CLEAR     13  12  96 W9        30.04S WCI   1
HURON          CLOUDY    17  14  88 CALM      30.06F
CHAMBERLAIN    CLOUDY    21  18  89 SW3       30.06F
MITCHELL       CLOUDY    18  14  84 W3        30.07F
YANKTON        CLOUDY    12   9  85 W8        30.09R WCI   1
$$

ABBREVIATIONS USED IN REMARKS
   TC - TEMPERATURE IN CELSIUS
  WCI - WIND CHILL INDEX
   HX - HEAT INDEX
  VSB - VISIBILITY





USA.gov is the U.S. government's official web portal to all federal, state and local government web resources and services.